Tracking 35237 objects as of 6-Sep-2026
HD Live streaming from Space Station
objects crossing your sky now

STARLINK-31335

Track STARLINK-31335 now!
10-day predictions
STARLINK-31335 is classified as:


NORAD ID: 58969
Int'l Code: 2024-031E
Launch date: February 15, 2023
Source: United States (US)
Launch site: AIR FORCE WESTERN TEST RANGE (AFWTR)
Your satellite tracking list
Your tracking list is empty




NASA's NSSDC Master Catalog

Two Line Element Set (TLE):
1 58969U 24031E   26249.18901892  .00001098  00000-0  43652-4 0  9990
2 58969  53.1555 172.2538 0001481  91.1032 269.0140 15.34392710144243
Source of the keplerian elements: AFSPC